GW3329 Weather Reports


time (UTC)temp
F
wind
direction
speed
knots
gust
knots
rain 1hr
in
rain 24hr
in
rain mn
in
humidity
%
barometer
mb
20260505055824 55 172 1.7 1.7 0.00 0.00 0.00 85 1018.6
20260505055320 55 174 0.0 0.9 0.00 0.00 0.00 86 1018.6
20260505054817 55 192 3.5 5.2 0.00 0.00 0.00 86 1018.8
20260505054314 55 207 0.9 0.9 0.00 0.00 0.00 85 1018.8
20260505053813 55 159 0.0 0.9 0.00 0.00 0.00 86 1018.9
20260505053309 55 169 0.0 0.0 0.00 0.00 0.00 87 1018.8
20260505052806 55 149 0.0 1.7 0.00 0.00 0.00 86 1018.8
20260505052304 55 156 0.0 2.6 0.00 0.00 0.00 86 1018.9
20260505051800 55 167 0.0 0.9 0.00 0.00 0.00 85 1019.0
20260505051258 55 171 0.0 0.9 0.00 0.00 0.00 84 1018.9
20260505050756 55 359 0.0 0.9 0.00 0.00 0.00 84 1019.0
20260505050254 55 309 0.9 1.7 0.00 0.00 0.00 84 1018.7
20260505041729 56 207 1.7 3.5 0.00 0.00 0.00 87 1018.5
20260505041226 56 177 0.9 3.5 0.00 0.00 0.00 87 1018.7
20260505040723 56 243 2.6 3.5 0.00 0.00 0.00 87 1018.5
20260505040220 56 167 0.0 2.6 0.00 0.00 0.00 87 1018.8
20260505035717 56 177 0.9 3.5 0.00 0.00 0.00 86 1018.7
20260505035213 56 160 0.9 3.5 0.00 0.00 0.00 85 1018.7
20260505034710 56 151 0.0 1.7 0.00 0.00 0.00 85 1018.7
20260505034207 56 86 0.0 0.9 0.00 0.00 0.00 84 1018.7
20260505033703 56 162 1.7 5.2 0.00 0.00 0.00 84 1018.7
20260505033201 56 249 1.7 3.5 0.00 0.00 0.00 84 1018.5
20260505032659 56 171 0.0 1.7 0.00 0.00 0.00 84 1018.5
20260505032155 56 147 0.9 1.7 0.00 0.00 0.00 83 1018.3
20260505031652 57 192 0.9 1.7 0.00 0.00 0.00 83 1018.5
20260505031149 57 176 1.7 2.6 0.00 0.00 0.00 83 1018.2
20260505030646 57 220 1.7 2.6 0.00 0.00 0.00 83 1018.3
20260505030141 57 217 1.7 2.6 0.00 0.00 0.00 83 1018.3
20260505025637 57 234 0.9 2.6 0.00 0.00 0.00 83 1018.3
20260505025136 57 296 1.7 2.6 0.00 0.00 0.00 83 1018.3
20260505024633 57 221 1.7 2.6 0.00 0.00 0.00 82 1018.3
20260505024130 57 166 0.9 1.7 0.00 0.00 0.00 82 1018.4
20260505023628 57 180 0.9 1.7 0.00 0.00 0.00 81 1018.3
20260505023125 57 266 1.7 3.5 0.00 0.00 0.00 81 1018.0
20260505022623 57 331 1.7 3.5 0.00 0.00 0.00 81 1018.0
20260505022119 58 176 0.9 2.6 0.00 0.00 0.00 80 1018.2
20260505021616 57 153 3.5 3.5 0.00 0.00 0.00 80 1018.0
20260505021113 58 248 2.6 5.2 0.00 0.00 0.00 79 1018.3
20260505020608 58 157 2.6 5.2 0.00 0.00 0.00 79 1018.4
20260505020105 58 183 1.7 7.0 0.00 0.00 0.00 80 1018.1
20260505015602 59 133 0.0 1.7 0.00 0.00 0.00 79 1018.2
20260505015058 59 167 0.9 5.2 0.00 0.00 0.00 80 1018.5
20260505014555 59 167 0.9 2.6 0.00 0.00 0.00 79 1018.3
20260505014052 59 169 1.7 3.5 0.00 0.00 0.00 78 1018.3
20260505013549 59 197 3.5 6.1 0.00 0.00 0.00 78 1018.2
20260505013047 59 166 0.9 6.1 0.00 0.00 0.00 76 1018.3
20260505012545 60 273 3.5 7.0 0.00 0.00 0.00 75 1018.5
20260505012042 59 227 2.6 7.0 0.00 0.00 0.00 75 1018.4
20260505011537 60 146 3.5 7.0 0.00 0.00 0.00 73 1018.3
20260505011035 60 270 1.7 2.6 0.00 0.00 0.00 74 1018.4
20260505010530 60 211 1.7 6.1 0.00 0.00 0.00 74 1018.4
20260505010027 60 251 0.9 7.0 0.00 0.00 0.00 74 1018.6
20260505005523 59 196 1.7 7.0 0.00 0.00 0.00 75 1018.6
20260505005021 60 220 4.3 7.8 0.00 0.00 0.00 73 1018.5
20260505004517 60 262 2.6 7.8 0.00 0.00 0.00 73 1018.6
20260505004014 60 172 3.5 6.1 0.00 0.00 0.00 73 1018.7
20260505003511 60 290 4.3 6.1 0.00 0.00 0.00 71 1018.6
20260505003009 60 120 2.6 7.8 0.00 0.00 0.00 71 1018.5
20260505002503 60 229 3.5 7.0 0.00 0.00 0.00 69 1018.7
20260505002003 60 170 3.5 8.7 0.00 0.00 0.00 69 1018.5
20260505001500 61 127 1.7 5.2 0.00 0.00 0.00 67 1018.7
20260505000956 62 148 3.5 5.2 0.00 0.00 0.00 65 1018.4
20260505000454 63 253 3.5 5.2 0.00 0.00 0.00 64 1018.3
20260504235951 62 232 4.3 7.8 0.00 0.00 0.00 64 1018.3
20260504235448 63 182 1.7 6.1 0.00 0.00 0.00 63 1018.4
20260504234945 62 164 0.9 7.8 0.00 0.00 0.00 64 1018.4
20260504234442 62 201 1.7 5.2 0.00 0.00 0.00 65 1018.3
20260504233938 63 348 3.5 8.7 0.00 0.00 0.00 66 1018.4
20260504233434 62 136 0.9 3.5 0.00 0.00 0.00 66 1018.3
20260504232931 63 187 2.6 8.7 0.00 0.00 0.00 64 1018.4
20260504232428 64 282 2.6 7.8 0.00 0.00 0.00 64 1018.3
20260504231925 64 165 3.5 6.1 0.00 0.00 0.00 62 1018.1
20260504231421 64 323 3.5 8.7 0.00 0.00 0.00 63 1018.2
20260504230918 64 164 3.5 7.0 0.00 0.00 0.00 63 1018.3
20260504230415 64 136 5.2 8.7 0.00 0.00 0.00 65 1018.4
20260504225914 64 249 3.5 9.6 0.00 0.00 0.00 67 1018.4
20260504225410 63 204 5.2 12.2 0.00 0.00 0.00 66 1018.4
20260504224908 65 227 3.5 9.6 0.00 0.00 0.00 64 1018.6
20260504224404 65 195 3.5 7.8 0.00 0.00 0.00 62 1018.8
20260504223901 66 287 3.5 5.2 0.00 0.00 0.00 59 1018.7
20260504223356 65 217 4.3 8.7 0.00 0.00 0.00 63 1018.7
20260504222853 64 204 6.1 11.3 0.00 0.00 0.00 63 1018.8
20260504222350 65 178 2.6 7.0 0.00 0.00 0.00 60 1018.9
20260504221848 66 195 4.3 9.6 0.00 0.00 0.00 61 1018.9
20260504221344 64 159 2.6 11.3 0.00 0.00 0.00 62 1018.8
20260504220842 64 198 5.2 7.8 0.00 0.00 0.00 60 1019.0
20260504220338 64 250 6.1 12.2 0.00 0.00 0.00 59 1019.3
20260504215836 64 161 6.1 11.3 0.00 0.00 0.00 58 1019.0
20260504215332 65 294 2.6 13.0 0.00 0.00 0.00 59 1018.9
20260504214828 66 245 5.2 9.6 0.00 0.00 0.00 56 1019.1
20260504214325 64 196 10.4 13.9 0.00 0.00 0.00 59 1019.1
20260504213822 66 180 2.6 9.6 0.00 0.00 0.00 58 1019.2
20260504213318 65 221 3.5 12.2 0.00 0.00 0.00 56 1018.9
20260504212815 65 217 5.2 12.2 0.00 0.00 0.00 56 1019.3
20260504212311 66 201 2.6 7.0 0.00 0.00 0.00 54 1019.3
20260504211809 65 185 7.0 9.6 0.00 0.00 0.00 55 1019.0
20260504211305 65 140 2.6 7.0 0.00 0.00 0.00 54 1019.2
20260504210803 65 208 3.5 9.6 0.00 0.00 0.00 54 1019.1
20260504210259 65 237 8.7 13.9 0.00 0.00 0.00 53 1019.3
20260504205757 64 172 5.2 13.0 0.00 0.00 0.00 55 1019.1
20260504205254 66 234 6.1 9.6 0.00 0.00 0.00 53 1019.2
20260504204752 65 200 4.3 12.2 0.00 0.00 0.00 56 1019.2
20260504204250 66 166 5.2 9.6 0.00 0.00 0.00 53 1019.2
20260504203750 66 159 3.5 13.9 0.00 0.00 0.00 53 1019.3
20260504203246 66 239 5.2 12.2 0.00 0.00 0.00 52 1019.1
20260504202741 67 201 6.1 8.7 0.00 0.00 0.00 50 1019.0
20260504202239 68 196 8.7 13.0 0.00 0.00 0.00 51 1019.0
20260504201735 67 179 8.7 12.2 0.00 0.00 0.00 53 1019.1
20260504201233 68 192 4.3 9.6 0.00 0.00 0.00 53 1019.0
20260504200731 69 352 3.5 9.6 0.00 0.00 0.00 50 1018.9
20260504200226 67 187 1.7 7.0 0.00 0.00 0.00 51 1019.0
20260504195723 67 299 3.5 7.8 0.00 0.00 0.00 46 1018.7
20260504195219 68 354 3.5 7.0 0.00 0.00 0.00 50 1018.9
20260504194716 68 272 3.5 6.1 0.00 0.00 0.00 49 1019.0
20260504194212 68 184 2.6 5.2 0.00 0.00 0.00 49 1019.0
20260504193709 68 165 2.6 8.7 0.00 0.00 0.00 48 1019.3
20260504193206 67 204 7.0 11.3 0.00 0.00 0.00 51 1019.4
20260504192704 67 249 3.5 7.8 0.00 0.00 0.00 53 1019.0
20260504192202 68 179 1.7 5.2 0.00 0.00 0.00 51 1019.1
20260504191701 68 172 2.6 3.5 0.00 0.00 0.00 52 1019.0
20260504191156 66 156 6.1 13.0 0.00 0.00 0.00 53 1019.2
20260504190652 67 356 1.7 7.8 0.00 0.00 0.00 56 1019.3
20260504190149 66 184 2.6 6.1 0.00 0.00 0.00 57 1019.2
20260504185645 66 191 1.7 5.2 0.00 0.00 0.00 56 1019.1
20260504185142 67 195 1.7 7.0 0.00 0.00 0.00 58 1019.4
20260504184638 65 86 0.9 1.7 0.00 0.00 0.00 58 1019.2
20260504184133 66 182 3.5 8.7 0.00 0.00 0.00 59 1019.3
20260504183630 65 218 0.9 2.6 0.00 0.00 0.00 57 1019.3
20260504183128 65 271 4.3 6.1 0.00 0.00 0.00 57 1019.3
20260504182626 65 269 3.5 7.8 0.00 0.00 0.00 59 1019.4
20260504182123 65 260 4.3 6.1 0.00 0.00 0.00 58 1019.6
20260504181620 67 193 7.0 8.7 0.00 0.00 0.00 55 1019.8
20260504181118 66 213 4.3 7.0 0.00 0.00 0.00 57 1019.3
20260504180617 65 220 5.2 9.6 0.00 0.00 0.00 58 1019.6
20260504180115 66 190 5.2 7.0 0.00 0.00 0.00 57 1019.3
20260504175612 66 160 1.7 3.5 0.00 0.00 0.00 58 1019.2
20260504175109 65 172 5.2 7.8 0.00 0.00 0.00 60 1019.2
20260504174607 67 181 4.3 7.0 0.00 0.00 0.00 56 1019.6
20260504174103 65 284 2.6 5.2 0.00 0.00 0.00 61 1019.4
20260504173600 66 125 1.7 6.1 0.00 0.00 0.00 60 1019.2
20260504173058 64 220 0.9 5.2 0.00 0.00 0.00 61 1019.3
20260504172554 64 341 2.6 7.0 0.00 0.00 0.00 63 1019.3
20260504172050 67 305 2.6 5.2 0.00 0.00 0.00 59 1019.3
20260504171547 63 345 1.7 3.5 0.00 0.00 0.00 63 1019.3
20260504171044 64 234 0.9 7.8 0.00 0.00 0.00 62 1019.1
20260504170540 64 43 0.0 1.7 0.00 0.00 0.00 61 1019.1
20260504150924 57 132 0.0 1.7 0.00 0.00 0.00 79 1018.7
20260504150420 57 132 1.7 2.6 0.00 0.00 0.00 80 1018.6
20260504140847 52 151 0.0 0.0 0.00 0.00 0.00 91 1018.7
20260504140343 52 152 0.0 0.0 0.00 0.00 0.00 91 1018.7
20260504130812 50 201 0.0 0.0 0.00 0.00 0.00 94 1018.5
20260504130308 50 201 0.0 0.0 0.00 0.00 0.00 95 1018.2
20260504120232 51 202 0.0 0.0 0.00 0.00 0.00 94 1018.1
20260504110659 51 258 0.0 0.0 0.00 0.00 0.00 93 1018.1
20260504110155 51 159 0.0 0.0 0.00 0.00 0.00 93 1018.1
20260504100615 52 172 0.0 0.9 0.00 0.00 0.00 90 1018.1
20260504100113 53 171 0.0 0.0 0.00 0.00 0.00 90 1018.0
20260504081506 55 162 0.0 0.9 0.00 0.00 0.00 89 1019.1
20260504081002 55 164 0.9 2.6 0.00 0.00 0.00 89 1019.2
20260504080458 55 161 0.0 1.7 0.00 0.00 0.00 89 1019.4